Regional Weather Roundup
Issued by NWS

Home | Current Version | Previous Version | Text Only | Print | Product List | Glossary Off
Versions: 1 2 3 4 5 6 7 8 9 10 11 12 13 14 15 16 17 18 19 20 21 22 23 24 25 26 27 28

000
ASUS45 KTFX 181710
RWRMT
MONTANA REGIONAL WEATHER ROUNDUP
NATIONAL WEATHER SERVICE GREAT FALLS MT
1000 AM MST THU JAN 18 2018

NOTE: "FAIR" INDICATES FEW OR NO CLOUDS BELOW 12000 FEET WITH NO
SIGNIFICANT WEATHER AND/OR OBSTRUCTIONS TO VISIBILITY.

MTZ001>007-043-181800-
WEST OF THE DIVIDE

CITY           SKY/WX    TMP DP  RH WIND       PRES   REMARKS
KALISPELL      CLOUDY    34  33  96 S15       29.79F WCI  24
MISSOULA       LGT RAIN  37  33  85 NW12G22   29.85R WCI  29
BUTTE          FAIR      26  20  77 CALM      29.90F
MULLAN PASS    SNOW      30  30 100 SW14G22   29.78S VSB 1/4 WCI  19
ANACONDA         N/A     41  27  56 SE13      29.86S
DEER LODGE       N/A     41  28  60 S10       29.82F
EUREKA           N/A     43  34  70 MISG      29.73S
HAMILTON         N/A     46  30  53 S13G18    29.80S
RONAN            N/A     37  36  93 SE8       29.86S WCI  31
$$

MTZ008-052>055-181800-
SOUTHWEST MONTANA

CITY           SKY/WX    TMP DP  RH WIND       PRES   REMARKS
BOZEMAN        FAIR      25  19  78 S8        29.91S WCI  16
DILLON         FAIR      33  27  78 SE7       29.94F WCI  27
ENNIS          CLOUDY    43  30  61 S28G39    29.99S
W YELLOWSTONE  CLOUDY    34  27  75 W3        30.12S
THREE FORKS      N/A     48  31  52 SW20      29.89F
$$

MTZ009-010-012-014-046-048-049-054-181800-
EAST SLOPES AND CENTRAL MONTANA

CITY           SKY/WX    TMP DP  RH WIND       PRES   REMARKS
CUT BANK       PTSUNNY   42  34  73 W30       29.68R
GREAT FALLS    FAIR      45  30  55 SW9       29.70S
MALMSTROM AFB  FAIR      44  31  61 S22       29.69F
HELENA         FAIR      30  24  78 W6        29.83F WCI  24
AUGUSTA        FAIR      43  32  66 W20       29.71R
BOWMANS CRNR   FAIR      42  28  57 S18G30    29.70R
CHOTEAU          N/A     45  34  65 MISG      29.72R
FAIRFIELD      FAIR      43  29  57 S13       29.70R
POWER          FAIR      40  29  64 SW16      29.69R
RAYNESFORD     FAIR      53  28  37 SW13G20   29.72F
ULM            FAIR      48  30  49 S24G36    29.71S
WHITE SULPHUR    N/A     43  28  56 S14G29    29.84F
$$

MTZ011-013-016-021-045-047-050-051-181800-
NORTH CENTRAL MONTANA

CITY           SKY/WX    TMP DP  RH WIND       PRES   REMARKS
HAVRE          FAIR      36  30  79 SW13      29.65F WCI  27
LEWISTOWN      FAIR      45  28  51 SW33      29.76S
N BAR RANCH    FAIR      37  27  65 CALM      29.80F
CHINOOK          N/A     21  16  79 E5        29.68F
DENTON         PTSUNNY   41  30  64 MISG      29.70S
GRASS RANGE    FAIR      50  26  39 CALM      29.72F
STANFORD       PTSUNNY   46  28  50 SW9G18    29.74S
WINIFRED       FAIR      46  29  51 SW18      29.71S
$$

MTZ017>020-022>027-061-062-181800-
NORTHEAST MONTANA

CITY           SKY/WX    TMP DP  RH WIND       PRES   REMARKS
GLASGOW        FAIR      20  14  77 SE6       29.71S WCI  12
GLENDIVE       FAIR      27  21  78 S12       29.78F WCI  17
JORDAN           N/A     39  30  70 W10       29.74R
MALTA          SUNNY     18  14  86 NE8       29.71F WCI   7
SIDNEY         FAIR      31  23  72 SW15      29.76F WCI  20
WOLF POINT     FAIR      17  12  80 CALM      29.73S
PLENTYWOOD       N/A     25  18  74 CALM      29.70S
POPLAR           N/A     25  19  80 CALM      29.73F
$$

MTZ028>42-056>058-181800-
SOUTHCENTRAL AND SOUTHEAST MONTANA

CITY           SKY/WX    TMP DP  RH WIND       PRES   REMARKS
BAKER          FAIR      38  25  59 SW12      29.80F WCI  30
BILLINGS       PTSUNNY   44  27  51 W25G35    29.83R
LIVINGSTON     FAIR      48  31  51 SW41G54   29.84R
MILES CITY     FAIR      26  20  77 SE9       29.81R WCI  17
BIG TIMBER     SUNNY     46  28  49 W12       29.88S
FORSYTH          N/A     32  21  64 CALM      29.81R
HARLOWTON      FAIR      36  26  66 CALM      29.83S
LAUREL           N/A     45  27  49 SW24G36   29.86S
$$

REGIONAL REPORTS...DAKOTAS

CITY           SKY/WX    TMP DP  RH WIND       PRES   REMARKS
WILLISTON      FAIR      26  19  74 S6        29.73F WCI  19
MINOT          FAIR      32  21  64 SW9       29.71F WCI  24
DICKINSON      FAIR      38  24  57 W10       29.76F WCI  31
BEACH          FAIR      39  23  52 SW20      29.80F WCI  30
CROSBY         FAIR      28  21  74 SW14G20   29.69S WCI  17
TIOGA          FAIR      25  23  93 SW8       29.73S WCI  16
WATFORD CITY   FAIR      30  23  74 W7        29.75R WCI  23
BISMARCK       FAIR      22  18  85 CALM      29.80F
GRAND FORKS    CLOUDY    25  18  74 W8        29.77F WCI  16
FARGO            N/A    N/A N/A N/A MISG        N/A
BUFFALO SD       N/A     39  24  55 W13       29.78R WCI  31
RAPID CITY     FAIR      47  22  37 W5        29.90R
$$

REGIONAL REPORTS...WYOMING/IDAHO/WASHINGTON

CITY           SKY/WX    TMP DP  RH WIND       PRES   REMARKS
GILLETTE         N/A    N/A N/A N/A MISG      29.91F
SHERIDAN       FAIR      32  24  72 CALM      29.84F
BUFFALO WY     FAIR      50  17  27 SE5       29.90F
CODY           FAIR      46  27  47 VRB3      29.98F
YELLOWSTONE LA   N/A     27  22  81 CALM      30.15F
IDAHO FALLS    FAIR      31  28  89 N7        30.13F WCI  24
SALMON         CLOUDY    26  25  96 CALM      30.01F
BOISE          FAIR      50  34  54 SE17G29   29.94R
SPOKANE        CLOUDY    42  41  96 SW17      29.80R
$$

REGIONAL REPORTS...ALBERTA

CITY           SKY/WX    TMP DP  RH WIND       PRES   REMARKS
CALGARY        PTCLDY    41  30  65 SW10G17   29.45S
CARDSTON         N/A     39  34  81 MISG        N/A
EDMONTON       CLEAR     30  21  69 W7        29.35S WCI  23
FORT MCMURRAY  MOCLDY    28  23  80 E8        29.29R WCI  20
HIGH LEVEL     FLURRIES  27  27 100 CALM      29.22F
LETHBRIDGE     PTSUNNY   43  34  70 SW31G37   29.59R
LLOYDMINSTER   MOCLDY    28  25  86 S6        29.33F WCI  22
MEDICINE HAT   PTSUNNY   39  32  75 SW16G22   29.58S WCI  30
MILK RIVER       N/A     43  34  70 W10G25      N/A
PEACE RIVER    MOCLDY    21  18  86 S5        29.27F
PINCHER CREEK  LGT RAIN  37  34  87 SW12      29.61S WCI  30
WATERTON GATE    N/A     39  34  81 SW13G20     N/A  WCI  32
$$

REGIONAL REPORTS...SASKATCHEWAN

CITY           SKY/WX    TMP DP  RH WIND       PRES   REMARKS
CORONACH         N/A     34  23  64 SW10        N/A  WCI  26
CYPRESS HILLS    N/A     46  30  53 W8          N/A
ESTEVAN        CLOUDY    27  19  74 S7        29.67S WCI  19
MOOSE JAW        N/A     41  27  56 SW22G29     N/A
PRINCE ALBERT  CLOUDY    12  10  92 E8        29.47F WCI   1
REGINA         PTSUNNY   23  18  80 SE8       29.59F WCI  14
ROCKGLEN         N/A     37  27  65 SW23G29     N/A  WCI  26
SASKATOON      PTSUNNY   28  21  74 S12       29.47F WCI  18
SWIFT CURRENT  CLOUDY    41  32  70 SW24G32   29.52S
VAL MARIE        N/A     18  12  79 SW6         N/A  WCI   9
$$




USA.gov is the U.S. government's official web portal to all federal, state and local government web resources and services.